[[{"header":{"parameterUnit":"m.s-1","parameterCategory":1,"la1":30.2992,"la2":30.254,"lo1":-89.0895,"lo2":-89.0443,"dy":0.0025,"dx":0.0025,"nx":19,"ny":19,"refTime":"2026-03-06T03:00:00:Z","depth":0,"parameterNumber":2,"parameterNumberName":"U-component_of_WINDS"},"data":[0,0,0,-3.4933,-3.4935,-3.5044,-3.5044,-3.5192,-3.5193,0,0,0,0,0,0,0,0,0,0,0,-3.4905,-3.4906,-3.4933,-3.4935,-3.5044,-3.5044,-3.5192,-3.5193,0,0,0,0,0,0,0,0,0,0,0,-3.4904,-3.4906,-3.4907,-3.4936,-3.5043,-3.5044,-3.5191,-3.5106,0,0,0,0,0,0,0,0,0,0,-3.5,-3.4978,-3.4905,-3.4907,-3.4937,-3.5043,-3.5044,-3.5102,-3.5112,-3.5146,0,-3.5177,0,-3.5188,-3.5204,-3.5204,0,0,0,-3.4932,-3.497,-3.4995,-3.4907,-3.4938,-3.5043,-3.4994,-3.5107,-3.5118,-3.5159,-3.5179,-3.5184,-3.519,-3.5205,-3.5205,-3.5413,-3.5414,0,0,-3.4926,-3.4927,-3.4988,-3.5002,-3.4985,-3.499,-3.4997,-3.5114,-3.5136,-3.518,-3.5188,-3.5192,-3.5206,-3.5207,-3.5412,-3.5413,0,0,0,-3.4911,-3.4923,-3.4945,-3.4997,-3.5015,-3.4994,-3.5002,-3.5131,-3.5138,-3.5189,-3.5194,-3.5206,-3.5208,-3.5411,-3.5412,-3.5467,0,0,0,-3.4908,-3.4914,-3.4943,-3.4944,-3.5013,-3.5074,-3.5016,-3.513,-3.5143,-3.5193,-3.5207,-3.521,-3.5409,-3.5412,-3.5462,-3.5491,0,0,0,-3.4896,-3.4912,-3.493,-3.4944,-3.499,-3.5072,-3.5086,-3.5133,-3.5147,-3.5204,-3.521,-3.5409,-3.5411,-3.5459,-3.5485,-3.5546,0,0,0,-3.4885,-3.4976,-3.493,-3.5035,-3.4989,-3.5105,-3.5085,-3.5172,-3.5228,-3.5207,-3.541,-3.5412,-3.5458,-3.5482,-3.5542,-3.5596,-3.5618,0,0,-3.5,-3.499,-3.5051,-3.5014,-3.5138,-3.5089,-3.5221,-3.5273,-3.5279,-3.5368,-3.5373,-3.5464,-3.5485,-3.5545,-3.5748,-3.5766,0,0,0,-3.5088,-3.5132,-3.5165,-3.5218,-3.526,-3.5299,-3.533,-3.535,-3.5426,-3.5324,-3.5503,-3.5515,-3.5551,-3.5576,-3.5592,-3.5622,-3.5425,-3.5424,-3.5424,-3.525,-3.5253,-3.5355,-3.5372,-3.5425,-3.5457,-3.55,-3.5532,-3.552,-3.5562,-3.5588,-3.5711,-3.5741,-3.5752,-3.5784,-3.5618,-3.5618,-3.5619,-3.5619,-3.5418,-3.548,-3.5464,-3.5556,-3.556,-3.5639,-3.5676,-3.5665,-3.5739,-3.5691,-3.5722,-3.5668,-3.5772,-3.58,-3.5623,-3.5622,-3.5622,-3.5621,-3.5621,-3.5522,-3.5553,-3.5576,-3.5655,-3.5716,-3.5731,-3.5804,-3.5805,-3.5807,-3.5838,-3.5866,-3.5865,-3.5863,-3.5852,-3.5852,-3.5853,-3.5853,-3.5853,-3.5854,-3.562,-3.5645,-3.5705,-3.576,-3.5795,-3.5842,-3.5879,-3.5915,-3.5954,-3.595,-3.595,-3.5933,-3.5782,-3.5743,-3.586,-3.5859,-3.5858,-3.5857,-3.5857,-3.5786,-3.5749,-3.5842,-3.5878,-3.5944,-3.6005,-3.6007,-3.608,-3.611,-3.6147,-3.6125,-3.6014,-3.6003,-3.5991,-3.5958,-3.6124,-3.6124,-3.6124,-3.6124,-3.5873,-3.5868,-3.5965,-3.6022,-3.6079,-3.6092,-3.6199,-3.623,-3.6256,-3.6276,-3.6253,-3.6211,-3.6198,-3.6195,-3.6179,-3.6148,-3.6359,-3.6359,-3.6359,-3.5974,-3.5976,-3.6066,-3.609,-3.6143,-3.6188,-3.6289,-3.6358,-3.638,-3.6369,-3.6291,-3.6281,-3.6213,-3.6191,-3.6174,-3.6148,-3.6093,0,0]},{"header":{"parameterUnit":"m.s-1","parameterCategory":1,"la1":30.2992,"la2":30.254,"lo1":-89.0895,"lo2":-89.0443,"dy":0.0025,"dx":0.0025,"nx":19,"ny":19,"refTime":"2026-03-06T03:00:00:Z","depth":0,"parameterNumber":3,"parameterNumberName":"V-component_of_WINDS"},"data":[0,0,0,1.8154,1.8155,1.8207,1.8207,1.8265,1.8265,0,0,0,0,0,0,0,0,0,0,0,1.8133,1.8133,1.8154,1.8155,1.8207,1.8207,1.8265,1.8265,0,0,0,0,0,0,0,0,0,0,0,1.8132,1.8133,1.8133,1.8155,1.8207,1.8207,1.8265,1.8229,0,0,0,0,0,0,0,0,0,0,1.818,1.8154,1.8133,1.8133,1.8155,1.8207,1.8207,1.8227,1.8231,1.8238,0,1.8242,0,1.8255,1.8269,1.8269,0,0,0,1.8159,1.8151,1.817,1.8133,1.8156,1.8207,1.8184,1.8229,1.8234,1.8243,1.8243,1.8245,1.8256,1.8269,1.8269,1.8297,1.8297,0,0,1.8156,1.8138,1.8167,1.8173,1.8164,1.8183,1.8186,1.8232,1.8231,1.8243,1.8247,1.8257,1.8269,1.827,1.8297,1.8297,0,0,0,1.8145,1.8136,1.8155,1.817,1.818,1.8184,1.8188,1.8229,1.8236,1.8247,1.8257,1.827,1.827,1.8297,1.8297,1.8279,0,0,0,1.8143,1.813,1.8153,1.8143,1.8179,1.8205,1.8183,1.8233,1.8239,1.8257,1.827,1.8271,1.8297,1.8297,1.8279,1.8272,0,0,0,1.8131,1.8129,1.8134,1.8142,1.8164,1.8205,1.8215,1.8235,1.8245,1.8269,1.8271,1.8297,1.8297,1.828,1.8273,1.8276,0,0,0,1.8112,1.8115,1.8134,1.8141,1.8164,1.8193,1.8215,1.8238,1.8256,1.827,1.8297,1.8297,1.828,1.8274,1.8277,1.8276,1.8274,0,0,1.8106,1.8113,1.8119,1.8138,1.8159,1.8186,1.8206,1.8238,1.8256,1.8283,1.8283,1.8279,1.8273,1.8276,1.8267,1.8265,0,0,0,1.8111,1.8115,1.8125,1.8142,1.8169,1.8191,1.8223,1.8236,1.826,1.8266,1.8281,1.8278,1.8281,1.8281,1.8279,1.8284,1.8296,1.8296,1.8296,1.8075,1.81,1.8112,1.8144,1.8161,1.8196,1.8212,1.8236,1.8253,1.8257,1.8264,1.8256,1.8256,1.8254,1.8258,1.8266,1.8266,1.8265,1.8265,1.8069,1.8079,1.8106,1.8128,1.8154,1.8172,1.8207,1.822,1.8241,1.8251,1.8254,1.8263,1.8252,1.8257,1.8264,1.8264,1.8265,1.8265,1.8265,1.8049,1.8058,1.8075,1.8106,1.8128,1.816,1.818,1.8203,1.8224,1.8228,1.824,1.8241,1.8245,1.8232,1.8232,1.8232,1.8232,1.8232,1.8232,1.8021,1.8041,1.8056,1.8087,1.8104,1.8128,1.8166,1.8183,1.8207,1.8222,1.8223,1.8241,1.8246,1.8247,1.8232,1.8232,1.8232,1.8232,1.8232,1.8006,1.8014,1.8036,1.8053,1.8094,1.8115,1.8145,1.8178,1.8196,1.8206,1.8225,1.8224,1.8233,1.8235,1.8236,1.8218,1.8218,1.8218,1.8218,1.7989,1.7997,1.8027,1.8053,1.8081,1.8112,1.8139,1.817,1.8202,1.8215,1.8221,1.8225,1.8225,1.8234,1.8235,1.8237,1.822,1.822,1.822,1.7982,1.7994,1.8012,1.8046,1.808,1.8109,1.8136,1.8166,1.8204,1.8221,1.8226,1.8226,1.8232,1.8232,1.8248,1.8249,1.8253,0,0]}]]